Погода в Корте

Франция     42°18′32″N   9°08′56″E
темп.,
°C
ветер,
м/с
пор.,
м/с
влажн.,
%
обл.,
%
осадки,
мм/ч
давл.,
гПа
погр.,
м
19 апреля, пн
пн1923:00+4зсз337494 0.0 101752
02:00+3з226894 0.0 101730
05:00+3з225859 0.0 101622
08:00+6зсз11516 0.0 101681
11:00+10в334383 0.1 10151854
14:00+9вюв2267100 0.9 10161085
17:00+7ююз117798 1.3 1016777
20:00+5зюз229216 1.7 101674
20 апреля, вт
вт2023:00+4з22835 0.0 101825
02:00+3з32821 0.0 101828
05:00+3з22800 0.0 101718
08:00+6з11700 0.0 101767
11:00+11вюв22519 0.0 10161442
14:00+11юв336098 0.4 10161304
17:00+8св1181100 2.4 1016409
20:00+5в00945 2.8 101711
21 апреля, ср
ср2123:00+4з22885 0.0 101918
02:00+3з2272100 0.0 101921
05:00+3з2265100 0.0 101916
08:00+6ююз1164100 0.0 101869
11:00+10вюв2264100 0.1 10181069
14:00+9вюв3378100 0.7 10181021
17:00+7вюв2399100 1.6 1018247
20:00+7юв12100100 1.9 1019118
22 апреля, чт
чт2223:00+7ююз1298100 0.0 1019141
02:00+7з119194 0.6 101828
05:00+7з1187100 0.1 101718
08:00+7ююв129280 0.3 1018150
11:00+8в2299100 1.1 1018237
14:00+7в0195100 2.5 1018161
17:00+9в2291100 0.3 1017314
20:00+8юв119898 0.4 101761
23 апреля, пт
пт2323:00+7юз119461 0.0 101823
02:00+6з119115 0.0 101810
05:00+5зсз22923 0.0 101817
08:00+8з11850 0.0 101881
11:00+14вюв21602 0.0 10181046
14:00+16вюв43508 0.0 10181562
17:00+13вюв226783 0.1 1019935
20:00+10вюв11832 0.1 102012